パンスターズ彗星

466P/PanSTARRS (2023)

English version
Home page
Updated on July 27, 2024

---------------------------------------------------------------------

・ プロフィール

符号 466P/2023 M3
検出日 2023年6月26日
検出光度 19.1等
検出者 Jacqueline B. Fazekas (Mt. Lemmon Survey)

・ 写真集

・ 軌道要素

Epoch 2024 Mar. 31.0 TT = JDT 2460400.5
T 2023 May 3.97760 TT                                   Rudenko
q   2.1548650            (2000.0)            P               Q
n   0.12096651     Peri.  196.85790     +0.72137998     +0.66765944
a   4.0491072      Node   119.78584     -0.60843355     +0.73788038
e   0.4678172      Incl.   12.23749     -0.33078624     +0.09880997
P   8.15
>From 213 observations 2015 Sept. 17-2023 Nov. 10, mean residual 0".6.

・ 光度変化

        m1 = 14.0 + 5 logΔ + 10.0 log r

---------------------------------------------------------------------

軌道要素はM.P.E.C. 2024-J304に掲載されたものです。
光度グラフはComet for Windowsで作成したものです。

---------------------------------------------------------------------

Copyright(C) Seiichi Yoshida (comet@aerith.net). All rights reserved.